Terminal Aerodrome Forecast
Issued by NWS Tiyan, Guam

Home | Current Version | Previous Version | Text Only | Print | Product List | Glossary On
Versions: 1 2 3 4 5 6 7 8 9 10 11 12 13 14 15 16 17 18 19 20 21 22 23
000
FTPQ31 PGUM 262300
TAFPQ
TAF
PGUM 262326Z 2700/2806 06016G25KT P6SM VCSH SCT022 SCT040=

USA.gov is the U.S. government's official web portal to all federal, state and local government web resources and services.